Torna al catalogo

STARLINK-11569

AttivoComunicazioniVLEO
NORAD 62910·PAYLOAD·🇺🇸 United States

Lanciato Feb 8, 2025 da Cape Canaveral Space Force Station

Loading…

Prossimi Passaggi (prossime 24 ore)

TLE

AggiornatoSource: CelesTrak SupGP

Epoca: Sep 14, 2026, 20:57 UTC

1 62910C 25027D   26257.87340278 -.00029532  00000+0 -22942-3 0  2576
2 62910  43.0004 287.2099 0001637 258.3890 227.0020 15.70847852    11

Traccia STARLINK-11569 in tempo reale con AllMySat

Download on the App Store